sat.trackr.live / text

‹ back to catalog

STARLINK-2299

NORAD 48029 · 2021-024BE

PAYLOAD ACTIVE UNKNOWN

§ Identity

Operator
Country
US
Launch date
2021-03-24
Launch site
AFETR
Launch vehicle
Mass (kg)
RCS (m²)

Purposes: comms

External: N2YO · Heavens-Above · Gunter

§ Orbital elements

Epoch: 2026-05-25T03:54:34.333632Z

Period
92.71 min
Inclination
53.1173°
Eccentricity
0.0003137
Mean motion
15.53186525 rev/d
Perigee alt
405.3 km
Apogee alt
409.6 km
Semi-major
6,785.6 km
B*
1.3282e-3
RAAN
330.1355°
Arg perigee
259.6556°
Mean anomaly
100.4101°
Rev number
28,642

§ Raw data

STARLINK-22991 48029U 21024BE  26145.16289738  .00085302  00000+0  13282-2 0  99992 48029  53.1173 330.1355 0003137 259.6556 100.4101 15.53186525286427

JSON: /api/v1/satellites/48029 · /tle

For live sub-satellite position, see the globe view (requires WebGL).

§ Visibility from observer

Set your observer location to see the next 7 days of passes ≥ 10°. The values pass through the URL so the page stays shareable.

No JS? Fill the form by hand. The geolocation button needs JavaScript.